Skip Page Navigation
NASA JPL Caltech
NASA Logo - Jet Propulsion Laboratory + View the NASA Portal
+ Near-Earth Object (NEO) Program
Search JPL
JPL Home Earth Solar System Stars & Galaxies Technology
JPL Solar System Dynamics
BODIES ORBITS EPHEMERIDES TOOLS PHYSICAL DATA DISCOVERY FAQ SITE MAP
JPL Small-Body Database Browser
Search: [ help ]  
14993 (1997 UC15)
Classification: Main-belt Asteroid          SPK-ID: 2014993
Ephemeris | Orbit Diagram | Orbital Elements | Physical Parameters | Discovery Circumstances | Close-Approach Data ]

[ show orbit diagram ]
Orbital Elements at Epoch 2457000.5 (2014-Dec-09.0) TDB
Reference: JPL 10 (heliocentric ecliptic J2000)
 Element Value Uncertainty (1-sigma)   Units 
e .1984131378001174 7.6187e-08  
a 3.11662081352743 2.8945e-08 AU
q 2.498242298582298 2.4624e-07 AU
i 1.083586727012573 6.7328e-06 deg
node 124.246094404423 0.00039331 deg
peri 252.4993900908175 0.00039374 deg
M 56.55992374569671 1.5812e-05 deg
tp 2456684.759209921882
(2014-Jan-27.25920992)
8.7512e-05 JED
period 2009.668275706803
5.50
2.7997e-05
7.665e-08
d
yr
n .1791340413498777 2.4955e-09 deg/d
Q 3.734999328472561 3.4688e-08 AU
  Orbit Determination Parameters
   # obs. used (total)      776  
   data-arc span      13939 days (38.16 yr)  
   first obs. used      1975-11-09  
   last obs. used      2014-01-07  
   planetary ephem.      DE431  
   SB-pert. ephem.      SB431-BIG16  
   condition code      0  
   fit RMS      .55786  
   data source      ORB  
   producer      Otto Matic  
   solution date      2014-Jun-09 21:04:41  

Additional Information
 Earth MOID = 1.50001 AU 
 T_jup = 3.186 
[ show covariance matrix ]

Ephemeris | Orbit Diagram | Orbital Elements | Physical Parameters | Discovery Circumstances | Close-Approach Data ]

Physical Parameter Table
Parameter Symbol Value Units Sigma Reference Notes
absolute magnitude H 13.6 mag n/a MPO272711  

14993 (1997 UC15)          Discovered 1997-Oct-26 by Shimizu, Y., Urata, T. at Nachi-Katsuura (905)
Reference: 20000523/Numbers.arcLast Updated: 2004-04-19

[ show close-approach data ]
Alternate Designations
 1997 UC15 = 1975 VS9 = 1986 VP6 
Ephemeris | Orbit Diagram | Orbital Elements | Physical Parameters | Discovery Circumstances | Close-Approach Data ]
ABOUT SSD CREDITS/AWARDS PRIVACY/COPYRIGHT GLOSSARY LINKS
FirstGov 2014-Nov-01 11:17 UT
(server date/time)  
NASA Home Page
Site Manager:   Donald K. Yeomans
Webmaster  Alan B. Chamberlin